Manistee, MI

6:08 AM EDT on March 25, 2017 (GMT -0400)
Manistee County-Blacker

Weather History for KMBL - February, 2013

Change the Weather History Date:

Wednesday, February 6, 2013

  Actual Average Record
Temperature  
Mean Temperature 21 °F -  
Max Temperature 28 °F 28 °F 47 °F (1964)
Min Temperature 14 °F 13 °F -5 °F (1967)
Degree Days  
Heating Degree Days 44    
Moisture  
Dew Point 15 °F    
Average Humidity 69    
Maximum Humidity 86    
Minimum Humidity 55    
Precipitation  
Precipitation 0.01 in - - ()
Sea Level Pressure  
Sea Level Pressure 30.17 in    
Wind  
Wind Speed 6 mph (SE)    
Max Wind Speed 9 mph    
Max Gust Speed 20 mph    
Visibility 8 miles    
Events      
Averages and records for this station are not official NWS values.
T = Trace of Precipitation, MM = Missing Value Source: NWS Daily Summary

Daily Weather History Graph

Daily Weather History Graph

Search for Another Location

Airport or City:

Trip Planner

Search our weather history database for the weather conditions in past years. The results will help you decide how hot, cold, wet, or windy it might be!

Date:

Astronomy

Feb. 06, 2013 Rise Set
Actual Time 7:56 AM EST 6:02 PM EST
Civil Twilight 7:26 AM EST 6:32 PM EST
Nautical Twilight 6:51 AM EST 7:06 PM EST
Astronomical Twilight 6:18 AM EST 7:40 PM EST
Moon 4:44 AM EST (2/6) 2:15 PM EST (2/6)
Length of Visible Light 11h 06m
Length of Day
10h 05m
Waning Crescent, 17% of the Moon is Illuminated
Feb 6
Waning Crescent
Feb 10
New
Feb 17
First Quarter
Feb 25
Full
Mar 4
Last Quarter

Hourly Weather History & Observations

Time (EST) Temp. Windchill Dew Point Humidity Pressure Visibility Wind Dir Wind Speed Gust Speed Precip Events Conditions
12:15 AM 24.8 °F 16.1 °F 15.8 °F 69% 30.01 in 5.0 mi NNW 8.1 mph 17.3 mph N/A   Overcast
12:35 AM 24.8 °F 15.3 °F 15.8 °F 69% 30.03 in 6.0 mi North 9.2 mph - N/A   Overcast
12:55 AM 24.8 °F 17.9 °F 15.8 °F 69% 30.04 in 10.0 mi North 5.8 mph - N/A   Overcast
1:15 AM 23.0 °F 13.1 °F 14.0 °F 68% 30.04 in 10.0 mi North 9.2 mph 18.4 mph N/A   Overcast
1:35 AM 23.0 °F 13.1 °F 12.2 °F 63% 30.05 in 10.0 mi NNW 9.2 mph 19.6 mph N/A   Overcast
2:15 AM 23.0 °F 13.1 °F 12.2 °F 63% 30.06 in 10.0 mi NNW 9.2 mph - N/A   Overcast
2:35 AM 21.2 °F 10.9 °F 10.4 °F 63% 30.07 in 10.0 mi NNW 9.2 mph - N/A   Overcast
2:55 AM 21.2 °F 11.7 °F 10.4 °F 63% 30.08 in 10.0 mi NNW 8.1 mph - N/A   Overcast
3:15 AM 21.2 °F 12.6 °F 10.4 °F 63% 30.08 in 10.0 mi NNW 6.9 mph - N/A   Overcast
3:35 AM 21.2 °F 11.7 °F 10.4 °F 63% 30.09 in 10.0 mi NNW 8.1 mph - N/A   Overcast
3:55 AM 21.2 °F 12.6 °F 10.4 °F 63% 30.09 in 10.0 mi NNW 6.9 mph - N/A   Overcast
4:15 AM 21.2 °F 14.9 °F 10.4 °F 63% 30.10 in 10.0 mi North 4.6 mph - N/A   Overcast
4:35 AM 21.2 °F - 10.4 °F 63% 30.11 in 10.0 mi Calm Calm - N/A   Overcast
4:55 AM 21.2 °F 14.9 °F 10.4 °F 63% 30.12 in 10.0 mi NW 4.6 mph - N/A   Overcast
5:15 AM 21.2 °F 13.6 °F 8.6 °F 58% 30.12 in 10.0 mi NNW 5.8 mph - N/A   Overcast
5:35 AM 21.2 °F - 10.4 °F 63% 30.13 in 10.0 mi Calm Calm - N/A   Overcast
5:55 AM 19.4 °F - 8.6 °F 63% 30.14 in 10.0 mi Calm Calm - N/A   Overcast
6:15 AM 17.6 °F - 8.6 °F 68% 30.15 in 10.0 mi Calm Calm - N/A   Overcast
6:35 AM 17.6 °F 12.3 °F 8.6 °F 68% 30.15 in 10.0 mi ENE 3.5 mph - N/A   Overcast
6:55 AM 15.8 °F 10.2 °F 10.4 °F 79% 30.14 in 10.0 mi ENE 3.5 mph - N/A   Overcast
7:15 AM 15.8 °F 10.2 °F 8.6 °F 73% 30.16 in 10.0 mi East 3.5 mph - N/A   Overcast
7:35 AM 14.0 °F 8.2 °F 8.6 °F 79% 30.17 in 10.0 mi East 3.5 mph - N/A   Overcast
7:55 AM 14.0 °F 6.5 °F 10.4 °F 86% 30.17 in 10.0 mi East 4.6 mph - N/A   Overcast
8:15 AM 15.8 °F 10.2 °F 8.6 °F 73% 30.18 in 10.0 mi East 3.5 mph - N/A   Overcast
8:35 AM 14.0 °F 6.5 °F 8.6 °F 79% 30.18 in 10.0 mi ENE 4.6 mph - N/A   Mostly Cloudy
8:55 AM 14.0 °F 8.2 °F 10.4 °F 86% 30.19 in 10.0 mi East 3.5 mph - N/A   Overcast
9:15 AM 15.8 °F 10.2 °F 10.4 °F 79% 30.19 in 10.0 mi East 3.5 mph - N/A   Overcast
9:35 AM 15.8 °F 10.2 °F 10.4 °F 79% 30.19 in 10.0 mi East 3.5 mph - N/A   Overcast
9:55 AM 17.6 °F 12.3 °F 10.4 °F 73% 30.20 in 10.0 mi East 3.5 mph - N/A   Mostly Cloudy
10:15 AM 17.6 °F 10.7 °F 10.4 °F 73% 30.21 in 10.0 mi East 4.6 mph - N/A   Mostly Cloudy
10:35 AM 19.4 °F 12.8 °F 10.4 °F 68% 30.22 in 10.0 mi SE 4.6 mph - N/A   Mostly Cloudy
10:55 AM 21.2 °F 14.9 °F 10.4 °F 63% 30.23 in 10.0 mi SE 4.6 mph - N/A   Overcast
11:35 AM 24.8 °F 16.1 °F 12.2 °F 59% 30.25 in 10.0 mi South 8.1 mph - N/A   Overcast
11:55 AM 24.8 °F 16.1 °F 12.2 °F 59% 30.25 in 10.0 mi South 8.1 mph - N/A   Overcast
12:15 PM 24.8 °F 16.1 °F 15.8 °F 69% 30.24 in 10.0 mi South 8.1 mph - N/A   Mostly Cloudy
12:35 PM 26.6 °F 18.2 °F 14.0 °F 59% 30.23 in 10.0 mi SSW 8.1 mph - N/A   Overcast
12:55 PM 26.6 °F 19.1 °F 14.0 °F 59% 30.23 in 10.0 mi SSW 6.9 mph - N/A   Overcast
1:15 PM 26.6 °F 19.1 °F 14.0 °F 59% 30.22 in 10.0 mi SW 6.9 mph - N/A   Overcast
1:35 PM 26.6 °F 19.1 °F 15.8 °F 64% 30.21 in 10.0 mi South 6.9 mph - N/A   Overcast
1:55 PM 26.6 °F 20.0 °F 15.8 °F 64% 30.20 in 10.0 mi South 5.8 mph - N/A   Overcast
2:15 PM 26.6 °F 21.2 °F 17.6 °F 69% 30.20 in 10.0 mi South 4.6 mph - N/A   Overcast
2:35 PM 26.6 °F 19.1 °F 15.8 °F 64% 30.19 in 10.0 mi SSW 6.9 mph - N/A   Overcast
2:55 PM 26.6 °F 22.6 °F 15.8 °F 64% 30.20 in 10.0 mi South 3.5 mph - N/A   Overcast
3:15 PM 26.6 °F 21.2 °F 17.6 °F 69% 30.21 in 10.0 mi South 4.6 mph - N/A   Overcast
3:35 PM 26.6 °F 21.2 °F 15.8 °F 64% 30.21 in 10.0 mi South 4.6 mph - N/A   Overcast
3:55 PM 28.4 °F 23.3 °F 17.6 °F 64% 30.22 in 10.0 mi South 4.6 mph - N/A   Overcast
4:15 PM 28.4 °F 22.2 °F 17.6 °F 64% 30.21 in 10.0 mi South 5.8 mph - N/A   Overcast
4:35 PM 28.4 °F 24.6 °F 17.6 °F 64% 30.20 in 10.0 mi SSE 3.5 mph - N/A   Overcast
4:55 PM 28.4 °F 22.2 °F 17.6 °F 64% 30.20 in 10.0 mi SSW 5.8 mph - N/A   Scattered Clouds
5:15 PM 28.4 °F 23.3 °F 15.8 °F 59% 30.20 in 10.0 mi South 4.6 mph - N/A   Scattered Clouds
5:35 PM 28.4 °F 23.3 °F 15.8 °F 59% 30.19 in 10.0 mi South 4.6 mph - N/A   Mostly Cloudy
5:55 PM 28.4 °F - 14.0 °F 55% 30.19 in 10.0 mi Calm Calm - N/A   Overcast
6:15 PM 28.4 °F - 15.8 °F 59% 30.19 in 10.0 mi Calm Calm - N/A   Overcast
6:35 PM 28.4 °F - 15.8 °F 59% 30.20 in 10.0 mi Calm Calm - N/A   Overcast
6:55 PM 28.4 °F - 15.8 °F 59% 30.20 in 10.0 mi Calm Calm - N/A   Overcast
7:15 PM 28.4 °F 24.6 °F 15.8 °F 59% 30.20 in 10.0 mi SE 3.5 mph - N/A   Overcast
7:35 PM 28.4 °F 23.3 °F 17.6 °F 64% 30.19 in 10.0 mi SE 4.6 mph - N/A   Overcast
7:55 PM 28.4 °F 23.3 °F 17.6 °F 64% 30.18 in 5.0 mi SE 4.6 mph - N/A   Overcast
8:15 PM 26.6 °F 21.2 °F 19.4 °F 74% 30.19 in 2.5 mi SE 4.6 mph - N/A   Overcast
8:35 PM 26.6 °F 19.1 °F 21.2 °F 80% 30.18 in 1.5 mi SE 6.9 mph - N/A   Overcast
8:55 PM 26.6 °F 21.2 °F 21.2 °F 80% 30.18 in 0.8 mi ESE 4.6 mph - N/A   Overcast
9:15 PM 26.6 °F 22.6 °F 23.0 °F 86% 30.19 in 1.8 mi ESE 3.5 mph - N/A   Overcast
9:35 PM 26.6 °F 21.2 °F 23.0 °F 86% 30.19 in 2.5 mi SE 4.6 mph - N/A   Overcast
9:55 PM 26.6 °F 22.6 °F 23.0 °F 86% 30.19 in 3.0 mi SE 3.5 mph - N/A   Overcast
10:15 PM 26.6 °F 20.0 °F 23.0 °F 86% 30.19 in 4.0 mi SE 5.8 mph - N/A   Overcast
10:35 PM 26.6 °F 21.2 °F 23.0 °F 86% 30.19 in 1.8 mi SE 4.6 mph - N/A   Overcast
10:55 PM 26.6 °F 21.2 °F 23.0 °F 86% 30.18 in 2.0 mi ESE 4.6 mph - 0.01 in   Overcast
11:15 PM 26.6 °F 21.2 °F 23.0 °F 86% 30.18 in 3.0 mi ESE 4.6 mph - N/A   Overcast
11:35 PM 26.6 °F 21.2 °F 23.0 °F 86% 30.17 in 2.5 mi SE 4.6 mph - N/A   Overcast
11:55 PM 26.6 °F 20.0 °F 23.0 °F 86% 30.17 in 3.0 mi ESE 5.8 mph - N/A   Overcast